| time (UTC) | temp F | wind direction | speed MPH | gust MPH | rain 1hr in | rain 24hr in | rain mn in | humidity % | barometer mb |
| 20260901141601 | 85 | 276 | 0.0 | 2.0 | 0.00 | 0.00 | 0.00 | 77 | 1018.7 |
| 20260901140001 | 85 | 256 | 0.0 | 3.0 | 0.00 | 0.00 | 0.00 | 78 | 1018.6 |
| 20260901134507 | 84 | 126 | 0.0 | 2.0 | 0.00 | 0.00 | 0.00 | 82 | 1018.5 |
| 20260901133040 | 83 | 356 | 0.0 | 2.0 | 0.00 | 0.00 | 0.00 | 85 | 1018.5 |
| 20260901131533 | 81 | 335 | 0.0 | 2.0 | 0.00 | 0.00 | 0.00 | 87 | 1018.6 |
| 20260901130032 | 80 | 41 | 0.0 | 3.0 | 0.00 | 0.00 | 0.00 | 89 | 1018.6 |
| 20260901124528 | 78 | 330 | 0.0 | 1.0 | 0.00 | 0.00 | 0.00 | 93 | 1018.5 |
| 20260901123124 | 77 | 177 | 0.0 | 0.0 | 0.00 | 0.00 | 0.00 | 93 | 1018.5 |
| 20260901121548 | 75 | 177 | 0.0 | 0.0 | 0.00 | 0.00 | 0.00 | 94 | 1018.5 |
| 20260901120049 | 73 | 177 | 0.0 | 0.0 | 0.00 | 0.00 | 0.00 | 95 | 1018.4 |
| 20260901113039 | 70 | 177 | 0.0 | 0.0 | 0.00 | 0.00 | 0.00 | 96 | 1018.0 |
| 20260901111538 | 69 | 177 | 0.0 | 0.0 | 0.00 | 0.00 | 0.00 | 96 | 1018.0 |
| 20260901110040 | 69 | 177 | 0.0 | 0.0 | 0.00 | 0.00 | 0.00 | 95 | 1017.8 |
| 20260901104539 | 69 | 177 | 0.0 | 0.0 | 0.00 | 0.00 | 0.00 | 95 | 1017.7 |
| 20260901103031 | 69 | 177 | 0.0 | 0.0 | 0.00 | 0.00 | 0.00 | 95 | 1017.5 |
| 20260901101530 | 69 | 177 | 0.0 | 0.0 | 0.00 | 0.00 | 0.00 | 95 | 1017.4 |
| 20260901100030 | 70 | 177 | 0.0 | 0.0 | 0.00 | 0.00 | 0.00 | 95 | 1017.4 |
| 20260901094503 | 70 | 177 | 0.0 | 0.0 | 0.00 | 0.00 | 0.00 | 95 | 1017.4 |
| 20260901093000 | 70 | 177 | 0.0 | 0.0 | 0.00 | 0.00 | 0.00 | 96 | 1017.4 |
| 20260901091629 | 70 | 177 | 0.0 | 0.0 | 0.00 | 0.00 | 0.00 | 95 | 1017.5 |
| 20260901090053 | 69 | 177 | 0.0 | 0.0 | 0.00 | 0.00 | 0.00 | 95 | 1017.4 |
| 20260901084554 | 70 | 177 | 0.0 | 0.0 | 0.00 | 0.00 | 0.00 | 95 | 1017.6 |
| 20260901083052 | 70 | 177 | 0.0 | 0.0 | 0.00 | 0.00 | 0.00 | 95 | 1017.6 |
| 20260901081523 | 70 | 177 | 0.0 | 0.0 | 0.00 | 0.00 | 0.00 | 95 | 1017.6 |
| 20260901080021 | 70 | 177 | 0.0 | 0.0 | 0.00 | 0.00 | 0.00 | 95 | 1017.6 |
| 20260901074518 | 71 | 178 | 0.0 | 0.0 | 0.00 | 0.00 | 0.00 | 95 | 1017.6 |
| 20260901073017 | 71 | 177 | 0.0 | 0.0 | 0.00 | 0.00 | 0.00 | 95 | 1017.6 |
| 20260901071513 | 71 | 177 | 0.0 | 0.0 | 0.00 | 0.00 | 0.00 | 95 | 1017.8 |
| 20260901070013 | 71 | 177 | 0.0 | 0.0 | 0.00 | 0.00 | 0.00 | 95 | 1017.6 |
| 20260901064543 | 71 | 177 | 0.0 | 0.0 | 0.00 | 0.00 | 0.00 | 95 | 1017.7 |
| 20260901063038 | 71 | 177 | 0.0 | 0.0 | 0.00 | 0.00 | 0.00 | 95 | 1017.8 |
| 20260901061511 | 71 | 177 | 0.0 | 0.0 | 0.00 | 0.00 | 0.00 | 94 | 1018.0 |
| 20260901060004 | 72 | 177 | 0.0 | 0.0 | 0.00 | 0.00 | 0.00 | 95 | 1018.2 |
| 20260901054533 | 72 | 174 | 0.0 | 0.0 | 0.00 | 0.00 | 0.00 | 94 | 1018.2 |
| 20260901053039 | 72 | 174 | 0.0 | 0.0 | 0.00 | 0.00 | 0.00 | 94 | 1018.3 |
| 20260901051612 | 72 | 174 | 0.0 | 0.0 | 0.00 | 0.00 | 0.00 | 94 | 1018.3 |
| 20260901051527 | 72 | 174 | 0.0 | 0.0 | 0.00 | 0.00 | 0.00 | 94 | 1018.4 |
| 20260901050059 | 72 | 174 | 0.0 | 0.0 | 0.00 | 0.00 | 0.00 | 94 | 1018.6 |
| 20260901044546 | 72 | 174 | 0.0 | 0.0 | 0.00 | 0.00 | 0.00 | 94 | 1018.6 |
| 20260901043042 | 73 | 174 | 0.0 | 0.0 | 0.00 | 0.00 | 0.00 | 94 | 1018.5 |
| 20260901041552 | 73 | 174 | 0.0 | 0.0 | 0.00 | 0.00 | 0.00 | 94 | 1018.4 |
| 20260901040037 | 73 | 174 | 0.0 | 0.0 | 0.00 | 0.00 | 0.00 | 94 | 1018.4 |
| 20260901034536 | 73 | 174 | 0.0 | 0.0 | 0.00 | 0.00 | 0.00 | 94 | 1018.3 |
| 20260901033033 | 73 | 174 | 0.0 | 0.0 | 0.00 | 0.00 | 0.00 | 94 | 1018.3 |
| 20260901031549 | 74 | 174 | 0.0 | 0.0 | 0.00 | 0.00 | 0.00 | 93 | 1018.3 |
| 20260901030033 | 74 | 174 | 0.0 | 0.0 | 0.00 | 0.00 | 0.00 | 93 | 1018.5 |
| 20260901024505 | 74 | 174 | 0.0 | 0.0 | 0.00 | 0.00 | 0.00 | 93 | 1018.5 |
| 20260901023004 | 74 | 174 | 0.0 | 0.0 | 0.00 | 0.00 | 0.00 | 93 | 1018.4 |
| 20260901021502 | 75 | 174 | 0.0 | 0.0 | 0.00 | 0.00 | 0.00 | 92 | 1018.5 |
| 20260901014601 | 75 | 174 | 0.0 | 0.0 | 0.00 | 0.01 | 0.00 | 92 | 1018.4 |
| 20260901013100 | 76 | 174 | 0.0 | 0.0 | 0.00 | 0.01 | 0.00 | 91 | 1018.3 |
| 20260901011530 | 76 | 174 | 0.0 | 0.0 | 0.00 | 0.01 | 0.00 | 91 | 1018.1 |
| 20260901010027 | 77 | 174 | 0.0 | 0.0 | 0.00 | 0.01 | 0.00 | 90 | 1018.0 |
| 20260901004512 | 77 | 174 | 0.0 | 0.0 | 0.00 | 0.01 | 0.00 | 89 | 1017.9 |
| 20260901003011 | 78 | 140 | 0.0 | 1.0 | 0.00 | 0.01 | 0.00 | 89 | 1017.8 |
| 20260901001512 | 78 | 146 | 0.0 | 2.0 | 0.00 | 0.01 | 0.00 | 88 | 1017.9 |
| 20260901000103 | 79 | 143 | 0.0 | 1.0 | 0.00 | 0.01 | 0.00 | 87 | 1017.8 |
| 20260831234613 | 79 | 145 | 0.0 | 0.0 | 0.00 | 0.01 | 0.00 | 86 | 1017.9 |
| 20260831233117 | 80 | 145 | 0.0 | 1.0 | 0.00 | 0.01 | 0.00 | 85 | 1017.9 |
| 20260831231551 | 81 | 133 | 0.0 | 2.0 | 0.00 | 0.01 | 0.00 | 84 | 1017.8 |
| 20260831230021 | 82 | 130 | 0.0 | 2.0 | 0.00 | 0.01 | 0.00 | 84 | 1017.7 |
| 20260831224526 | 82 | 176 | 2.0 | 6.0 | 0.00 | 0.01 | 0.00 | 83 | 1017.8 |
| 20260831224524 | 82 | 159 | 2.0 | 6.0 | 0.00 | 0.01 | 0.00 | 83 | 1017.8 |
| 20260831223011 | 82 | 150 | 2.0 | 6.0 | 0.00 | 0.01 | 0.00 | 82 | 1017.9 |
| 20260831221511 | 83 | 160 | 4.0 | 9.0 | 0.00 | 0.01 | 0.00 | 81 | 1017.8 |
| 20260831221507 | 83 | 186 | 4.0 | 9.0 | 0.00 | 0.01 | 0.00 | 81 | 1017.8 |
| 20260831220009 | 84 | 106 | 3.0 | 6.0 | 0.00 | 0.03 | 0.00 | 80 | 1017.8 |
| 20260831214504 | 85 | 127 | 3.0 | 9.0 | 0.00 | 0.03 | 0.00 | 79 | 1017.8 |
| 20260831213052 | 86 | 122 | 3.0 | 9.0 | 0.00 | 0.03 | 0.00 | 79 | 1017.7 |
| 20260831211554 | 86 | 200 | 2.0 | 8.0 | 0.00 | 0.03 | 0.00 | 80 | 1017.5 |
| 20260831210052 | 86 | 179 | 2.0 | 7.0 | 0.00 | 0.03 | 0.00 | 78 | 1017.4 |
| 20260831204551 | 86 | 184 | 1.0 | 8.0 | 0.00 | 0.03 | 0.00 | 79 | 1017.4 |
| 20260831203022 | 86 | 133 | 3.0 | 9.0 | 0.00 | 0.03 | 0.00 | 78 | 1017.6 |
| 20260831201522 | 86 | 123 | 3.0 | 9.0 | 0.00 | 0.03 | 0.00 | 79 | 1017.6 |
| 20260831200047 | 86 | 115 | 4.0 | 9.0 | 0.00 | 0.03 | 0.00 | 78 | 1017.8 |
| 20260831194559 | 86 | 115 | 1.0 | 7.0 | 0.00 | 0.03 | 0.00 | 78 | 1017.8 |
| 20260831193128 | 86 | 167 | 5.0 | 8.0 | 0.00 | 0.03 | 0.00 | 77 | 1017.9 |
| 20260831191511 | 85 | 174 | 3.0 | 8.0 | 0.00 | 0.03 | 0.00 | 78 | 1018.1 |
| 20260831190046 | 85 | 128 | 0.0 | 4.0 | 0.00 | 0.03 | 0.00 | 79 | 1018.3 |
| 20260831184541 | 86 | 149 | 3.0 | 8.0 | 0.00 | 0.03 | 0.00 | 76 | 1018.6 |
| 20260831183037 | 89 | 167 | 3.0 | 7.0 | 0.00 | 0.03 | 0.00 | 71 | 1018.6 |
| 20260831181542 | 89 | 110 | 2.0 | 5.0 | 0.00 | 0.03 | 0.00 | 71 | 1018.6 |
| 20260831180036 | 88 | 152 | 1.0 | 3.0 | 0.00 | 0.03 | 0.00 | 72 | 1018.7 |
| 20260831174543 | 90 | 113 | 0.0 | 5.0 | 0.00 | 0.03 | 0.00 | 67 | 1018.9 |
| 20260831173038 | 90 | 191 | 0.0 | 3.0 | 0.00 | 0.03 | 0.00 | 64 | 1019.0 |
| 20260831171531 | 89 | 345 | 1.0 | 3.0 | 0.00 | 0.03 | 0.00 | 67 | 1019.1 |
| 20260831170037 | 89 | 266 | 0.0 | 2.0 | 0.00 | 0.03 | 0.00 | 65 | 1019.3 |
| 20260831164530 | 89 | 114 | 0.0 | 4.0 | 0.00 | 0.03 | 0.00 | 65 | 1019.3 |
| 20260831163020 | 89 | 49 | 0.0 | 3.0 | 0.00 | 0.03 | 0.00 | 67 | 1019.4 |
| 20260831161517 | 87 | 75 | 0.0 | 6.0 | 0.00 | 0.03 | 0.00 | 71 | 1019.5 |
| 20260831160018 | 87 | 76 | 2.0 | 7.0 | 0.00 | 0.03 | 0.00 | 69 | 1019.5 |
| 20260831154512 | 86 | 101 | 1.0 | 5.0 | 0.00 | 0.03 | 0.00 | 71 | 1019.6 |
| 20260831153005 | 86 | 243 | 1.0 | 4.0 | 0.00 | 0.03 | 0.00 | 73 | 1019.5 |
| 20260831151507 | 85 | 321 | 0.0 | 4.0 | 0.00 | 0.03 | 0.00 | 73 | 1019.5 |
| 20260831144557 | 84 | 77 | 1.0 | 5.0 | 0.00 | 0.03 | 0.00 | 77 | 1019.4 |
| 20260831143100 | 84 | 314 | 1.0 | 6.0 | 0.00 | 0.03 | 0.00 | 78 | 1019.4 |